Miscellaneous Local Product
Issued by NWS North Platte, NE

Home | Current Version | Previous Version | Graphics & Text | Print | Product List | Glossary On
Versions: 1 2 3 4 5 6 7 8 9 10 11 12 13 14 15 16 17 18 19 20 21 22 23 24 25 26 27 28 29 30 31 32 33 34 35 36 37 38 39 40 41 42 43 44 45 46 47 48 49 50
000
AXUS43 KLBF 041010
MISLBF


WESTERN AND NORTH CENTRAL NEBRASKA HOURLY WEATHER ROUNDUP
NATIONAL WEATHER SERVICE NORTH PLATTE NE
400 AM CST SUN DEC 04 2016

NOTE: "FAIR" INDICATES FEW OR NO CLOUDS BELOW 12,000 FEET WITH NO
SIGNIFICANT WEATHER AND/OR OBSTRUCTIONS TO VISIBILITY.

NOTE: STATIONS NOT REPORTING VARIABLES SUCH AS SKY/WEATHER OR
PRESSURE ARE PROVIDED BY RAWS AND APRS NETWORKS AND ARE NOT UNDER
NATIONAL WEATHER SERVICE QUALITY CONTROL.

...OBSERVATIONS IN AND NEAR THE EASTERN PANHANDLE OF NEBRASKA...

CITY           SKY/WX    TMP DP  RH WIND       PRES   REMARKS
PINE RIDGE     CLOUDY    30  20  66 W3        29.95S
CHADRON        CLOUDY    26  16  65 SW9       29.98S WCI  17
ALLIANCE       CLEAR     17  12  80 W13       29.98R WCI   4
SIDNEY         CLEAR     22  13  68 W14       30.01S WCI   9
CRESCENT LAKE    N/A     25  16  68 W7          N/A  WCI  17
$$

...OBSERVATIONS IN NORTHERN NEBRASKA AND FAR SOUTHERN SOUTH DAKOTA...

CITY           SKY/WX    TMP DP  RH WIND       PRES   REMARKS
WINNER         FAIR      31  24  75 W7        29.90F WCI  24
VALENTINE      CLEAR     22  17  81 SW8       29.93S WCI  12
THEDFORD       CLEAR     25  21  85 W5        29.95F WCI  19
AINSWORTH      CLEAR     27  22  81 W7        29.92S WCI  20
O`NEILL        CLEAR     29  26  90 SW7       29.92F WCI  22
ORD            MOCLDY    26  23  88 SW3       29.95F
BROKEN BOW     MOCLDY    30  25  81 CALM      29.95F
VALENTINE NWR    N/A     26  19  75 W5          N/A  WCI  20
BUTTE            N/A     27  22  80 SW5         N/A  WCI  22
HALSEY           N/A     27  20  73 W6          N/A  WCI  21
CHAMBERS         N/A     27  24  88 CALM        N/A
EWING            N/A     26  25  95 SW3         N/A
$$

...OBSERVATIONS IN SOUTHWEST NEBRASKA AND FAR NORTHEAST COLORADO...

CITY           SKY/WX    TMP DP  RH WIND       PRES   REMARKS
WRAY           FAIR      19  14  79 W7        30.04  WCI  10
HOLYOKE        FAIR      27  16  63 W10       30.02F WCI  17
IMPERIAL       CLEAR     25  15  66 W13       30.01S WCI  14
OGALLALA       CLOUDY    29  19  65 SW9G16    30.00F WCI  21
NORTH PLATTE   CLEAR     20  16  84 W8        29.99S WCI  10
MCCOOK         CLEAR     23  18  81 SW13      30.01F WCI  11
LEXINGTON      FOG       26  25  96 NW5       29.98F VSB 1   WCI  20
STAPLETON        N/A     24  19  82 CALM        N/A
GOTHENBURG       N/A     28  23  81 W6          N/A  WCI  22
CALLAWAY         N/A     27  23  84 NW10        N/A  WCI  17
$$

...OBSERVATIONS IN CENTRAL LINCOLN COUNTY AREA...

CITY           SKY/WX    TMP DP  RH WIND       PRES   REMARKS
N.P. AIRPORT   CLEAR     20  16  84 W8        29.99S WCI  10
N.P. DOWNTOWN    N/A     27  20  76 CALM        N/A
N.P. SOUTHEAST   N/A     28  20  71 CALM        N/A
N.P. HILLCREST   N/A     26  21  80 W5          N/A  WCI  20
$$

...SOME OBSERVATIONS FROM AROUND THE REGION...

CITY           SKY/WX    TMP DP  RH WIND       PRES   REMARKS
LARAMIE        CLOUDY    17   8  67 SW14      29.98  WCI   3
CHEYENNE       CLEAR     26   8  46 W8G21     29.99F WCI  18
DENVER         CLOUDY    21   7  54 SW8       30.01F WCI  11
AKRON          CLEAR     22  10  60 W12       30.02S WCI  10
SCOTTSBLUFF    CLEAR     22  13  68 NW5       30.01S WCI  16
RAPID CITY     CLEAR     26  20  77 SW7       29.90F WCI  18
BISMARCK       PTCLDY    32  29  88 W14       29.76S WCI  22
PIERRE         CLEAR     31  25  78 W14       29.86S WCI  21
SIOUX FALLS    CLOUDY    34  33  96 SW9       29.91F WCI  27
OMAHA          CLOUDY    35  31  85 SW3       30.01F
GRAND ISLAND   CLEAR     31  31 100 W12       29.98F WCI  22
KANSAS CITY    LGT RAIN  40  37  89 SE5       30.02F FOG
WICHITA        LGT RAIN  41  40  96 N3        30.03S
OKLAHOMA CITY  LGT RAIN  44  43  96 N7        30.03S
DALLAS         LGT RAIN  48  45  89 N7        29.95F
AMARILLO       CLOUDY    37  36  96 N12       30.06S WCI  29
DODGE CITY     FOG       31  31 100 W14       30.04S VSB 1/2 WCI  21
HAYS           CLOUDY    31  30  96 W7        30.03F FOG     WCI  24
GOODLAND       CLEAR     21  13  71 W13       30.02F WCI   9
$$




USA.gov is the U.S. government's official web portal to all federal, state and local government web resources and services.